Wind_Speed
9 7 5 4 3 3 3 2 2 2 1 1 1 2 2 3 5 6 7 7 6 5 4 3 3 4 3 3 3 3 3 3 4 5 5 5 5 5 5 5 5 5 5 5 5 5 4 4 5 5 5 5 4 4 3 3 3 2 2 1 1 1 1 1 2 2 2 2 3 3 3 4 4 4 4 5 6 6 7 8 9 11 12 12 12 12
9 8 7 5 4 4 4 3 3 4 4 3 2 1 1 2 4 5 6 6 5 4 3 2 1 1 1 1 1 1 2 2 2 2 3 3 3 3 3 3 3 3 3 2 2 2 2 2 3 3 3 2 2 1 1 1 1 1 1 1 1 1 1 1 2 2 2 2 2 3 3 3 3 3 4 4 4 5 5 6 7 8 9 10 11 11
10 9 8 6 5 4 4 3 3 3 4 3 3 3 3 3 3 3 4 4 4 3 3 1 0 1 1 2 3 3 2 1 1 1 1 1 1 1 1 1 1 1 1 1 1 1 2 2 2 2 2 3 3 3 3 3 3 2 2 1 1 1 1 1 2 2 2 2 3 3 3 3 4 4 4 4 4 5 5 5 6 6 7 8 8 9
10 10 8 6 4 3 2 3 2 3 6 7 7 6 5 3 2 2 3 3 4 3 3 3 2 1 1 2 2 2 2 1 1 1 1 1 2 2 2 2 2 2 2 2 2 2 2 1 2 2 3 3 3 3 2 2 2 1 1 1 1 1 2 2 2 3 3 3 4 4 4 4 4 4 4 5 5 5 5 5 5 5 5 6 6 7
10 9 7 5 4 2 1 0 2 6 8 9 9 8 7 5 4 3 3 4 5 5 5 4 3 2 1 1 1 1 1 2 2 2 2 3 3 3 3 3 3 3 3 2 2 2 2 1 2 2 2 2 2 1 1 1 1 1 2 2 3 3 4 4 4 5 5 5 5 5 5 5 5 5 6 6 6 6 6 6 6 6 6 6 6 6
10 8 6 4 3 2 1 3 5 6 7 8 7 7 7 6 6 5 4 4 5 6 6 5 5 3 2 1 0 0 1 2 2 3 3 3 3 3 3 3 3 3 2 2 2 1 1 1 1 1 1 1 1 1 2 3 3 4 5 5 6 6 6 7 7 7 7 7 7 7 7 7 7 7 7 7 6 6 6 6 6 6 6 7 7 6
11 8 6 4 3 2 3 5 5 5 6 5 5 5 5 5 6 6 6 6 6 6 6 6 5 4 3 2 2 1 1 1 2 3 3 2 2 2 2 2 2 1 1 0 0 1 1 2 2 2 3 3 3 4 4 5 5 6 7 7 8 8 9 9 9 9 10 10 10 10 9 9 9 9 9 8 8 8 7 7 7 7 7 7 7 7
10 9 6 6 5 4 5 5 5 4 4 4 4 4 3 4 4 5 6 6 6 6 5 5 5 5 4 3 2 1 0 1 2 2 2 2 1 0 0 1 1 2 2 2 2 3 3 4 4 4 4 5 5 5 5 6 6 7 8 9 9 10 10 11 11 11 11 11 11 11 11 11 11 11 10 10 9 9 9 8 8 8 8 8 8 8
10 9 8 7 6 6 5 5 4 4 3 3 3 4 4 4 5 5 5 5 6 5 5 5 5 5 5 4 2 1 1 1 2 2 2 2 2 3 3 4 4 4 4 4 4 4 4 4 4 4 5 5 5 5 5 6 6 7 8 9 10 11 11 11 12 12 12 12 12 12 12 12 11 11 11 11 10 10 10 10 9 9 8 8 8 9
9 9 8 7 6 6 5 5 4 3 3 4 4 4 4 4 5 6 6 6 6 5 5 5 5 5 5 4 3 3 3 3 3 3 3 3 3 4 4 5 5 5 4 4 4 4 3 3 4 4 4 4 5 5 5 6 6 7 8 9 9 10 11 11 11 11 11 11 11 11 11 10 10 10 10 10 10 10 10 10 10 9 9 9 9 9
8 8 8 8 7 6 5 5 4 3 4 4 5 5 5 4 5 6 8 8 7 6 6 5 5 5 4 4 5 5 5 5 5 4 4 4 4 4 4 4 4 4 4 4 4 4 3 3 3 3 4 4 4 4 5 6 7 7 8 8 9 9 10 10 10 10 9 9 9 9 9 9 9 9 9 9 9 9 9 9 9 9 9 9 9 9
9 8 8 8 7 7 6 6 5 4 5 5 5 4 4 4 4 6 7 7 7 6 5 4 4 5 5 5 6 6 6 5 5 5 5 5 5 4 4 4 4 4 4 5 5 6 6 6 6 5 5 6 6 6 7 8 8 9 9 9 9 9 10 10 10 9 8 8 8 8 7 7 8 7 8 8 8 8 8 8 8 9 9 9 9 10
9 9 8 8 8 7 7 7 6 6 5 5 5 5 5 4 4 5 5 6 5 4 4 3 3 4 5 6 6 6 6 5 5 5 5 5 5 5 5 5 5 6 6 7 8 8 9 9 9 9 9 9 10 10 10 10 10 10 10 10 10 10 10 10 9 8 8 7 7 7 7 7 7 7 7 6 7 7 7 7 7 8 8 8 9 9
10 9 9 8 8 8 8 8 8 7 6 6 6 6 6 5 5 4 4 4 3 3 3 3 3 4 5 6 5 5 5 4 4 4 5 5 6 6 7 7 8 8 9 9 9 9 10 10 10 10 10 10 11 11 10 10 10 10 9 9 9 9 9 9 8 8 7 7 7 7 7 7 6 6 6 6 6 6 6 6 7 7 7 8 8 8
10 9 9 8 8 8 9 9 8 7 7 7 6 6 5 5 4 4 4 4 4 4 4 4 4 4 5 5 4 4 3 3 4 4 5 5 6 7 8 9 9 9 9 9 9 9 9 9 9 10 10 10 9 9 8 7 7 8 8 8 8 8 8 8 8 7 7 7 7 7 7 6 6 6 6 6 6 6 6 6 7 7 7 7 7 8
9 9 8 8 8 9 9 9 8 8 7 6 5 4 4 4 4 4 4 4 4 4 4 4 4 4 4 4 4 3 2 3 4 5 6 7 8 8 9 9 9 8 8 8 8 8 8 9 9 9 9 9 7 6 5 6 6 7 7 8 8 8 8 8 8 8 8 8 8 7 7 7 6 6 6 7 7 7 7 7 7 7 7 7 7 7
9 8 7 7 7 8 9 8 8 7 6 6 5 4 4 3 3 3 3 3 4 4 3 3 3 3 2 2 2 2 3 4 5 7 9 10 9 9 9 9 8 7 6 6 6 7 7 8 8 8 8 7 6 5 5 5 6 7 7 7 8 8 8 8 8 7 8 8 8 8 7 7 7 7 7 7 7 7 7 7 7 7 7 7 7 7
8 7 6 6 6 8 8 8 7 7 6 6 5 5 4 4 3 2 2 2 2 2 2 2 2 3 2 2 2 3 5 6 7 9 11 12 11 9 8 7 7 6 5 5 6 6 7 8 8 8 8 7 6 5 5 6 6 6 7 7 7 8 8 9 8 7 7 7 7 8 8 8 7 7 7 7 7 7 8 8 8 8 8 8 8 8
7 7 6 5 6 7 8 8 8 7 7 7 6 6 5 4 4 3 3 2 2 2 1 1 2 3 4 3 4 5 7 8 10 11 13 14 12 9 6 6 6 5 5 5 5 6 7 7 7 8 8 7 7 6 5 6 6 6 6 6 7 8 9 9 8 7 6 6 7 7 7 7 8 8 8 8 8 8 8 8 8 9 9 9 8 8
7 6 6 6 6 7 8 8 8 8 8 8 7 7 6 5 5 4 3 3 3 3 3 2 2 3 5 6 7 8 9 10 11 12 12 12 11 8 6 5 6 6 6 6 6 6 7 7 8 8 8 8 8 7 6 6 6 6 6 7 8 9 9 8 7 6 5 6 6 6 6 6 7 7 7 8 8 8 8 8 9 9 9 9 9 9
7 6 6 6 6 6 7 8 8 8 8 8 8 7 7 6 5 5 5 4 4 4 4 4 4 5 7 8 9 9 9 9 10 10 8 8 8 7 6 6 7 7 7 7 6 6 7 8 8 9 9 9 8 7 6 6 6 6 6 7 8 9 8 7 6 5 5 5 6 5 5 5 5 6 6 7 7 7 8 8 8 9 9 9 9 9
6 6 6 6 5 6 7 7 8 7 7 7 7 7 7 6 6 6 6 6 6 5 5 5 6 7 9 10 9 8 6 7 8 8 6 6 7 7 6 7 8 8 9 8 7 7 7 8 8 9 10 10 8 6 5 5 5 5 6 7 7 8 7 6 5 5 5 6 6 6 6 6 6 6 6 6 6 6 7 7 8 8 9 9 9 9
6 6 6 5 5 6 6 7 7 7 7 7 6 6 6 6 6 6 6 7 7 7 7 8 8 9 9 8 7 5 4 4 6 6 5 4 5 7 7 7 8 9 9 8 8 7 8 8 9 9 9 9 7 5 4 3 4 4 5 6 7 7 7 6 5 5 6 6 6 6 7 7 7 7 7 7 7 7 7 7 7 8 8 8 8 9
5 5 5 5 5 5 6 6 6 6 6 6 6 6 6 6 6 6 6 6 7 7 7 7 7 7 6 5 4 3 3 3 4 5 5 4 5 7 8 8 8 9 9 8 8 8 9 9 9 8 8 7 6 4 2 2 2 4 5 7 7 8 8 7 7 6 7 7 7 7 8 8 8 8 8 8 8 8 8 8 8 8 8 8 8 8
5 4 4 4 5 5 5 6 6 6 6 6 5 5 5 6 6 6 6 6 5 5 5 6 6 6 6 5 4 4 3 3 4 4 5 4 5 6 7 8 8 9 9 9 10 10 11 10 9 7 5 5 4 3 2 1 2 4 6 7 8 8 8 8 8 8 8 8 8 8 8 9 9 9 9 9 9 9 9 9 9 9 9 9 9 9
4 4 4 4 4 4 4 4 5 5 5 5 5 5 5 5 5 4 4 4 4 4 5 5 6 6 6 6 5 4 4 4 5 5 5 4 4 5 7 8 8 9 9 10 11 12 12 11 7 4 2 3 3 2 1 1 3 5 6 7 8 8 8 9 9 8 8 8 8 9 9 9 9 9 9 9 10 10 10 10 10 10 10 10 10 10
4 4 4 4 4 4 4 4 4 4 4 4 5 5 5 4 4 4 5 5 5 5 5 5 5 5 6 5 5 5 6 6 7 7 6 6 5 5 6 7 8 8 10 11 13 13 12 9 4 1 2 2 2 2 1 2 3 5 6 7 8 8 8 9 8 8 8 8 8 8 8 9 9 9 9 10 10 10 10 10 10 10 10 10 11 11
6 6 6 6 6 6 6 5 5 5 4 4 4 4 4 5 5 6 6 6 6 6 6 6 5 5 4 4 5 7 9 9 8 8 7 6 5 4 5 6 7 8 10 12 13 12 9 4 1 2 3 3 3 2 3 4 5 6 8 9 9 9 8 8 8 8 8 8 8 8 8 9 9 9 10 10 10 10 10 10 10 10 10 11 11 12
6 6 6 6 6 6 6 6 6 6 6 6 5 5 6 6 7 7 7 7 7 7 7 7 7 6 6 6 8 10 10 9 7 6 5 5 5 5 5 6 7 8 9 10 10 8 4 0 3 4 4 4 4 4 4 5 7 9 11 11 10 9 8 8 7 7 8 8 8 8 9 9 9 10 10 10 10 10 10 10 10 10 10 11 11 12
5 5 5 5 4 4 4 5 5 5 5 5 5 6 6 7 8 8 8 8 8 8 8 9 9 9 8 7 7 7 6 4 2 1 2 3 4 4 5 6 6 7 8 7 6 4 2 1 4 5 5 4 4 4 5 8 11 12 12 11 9 8 7 7 7 7 7 8 8 9 9 9 9 9 9 9 9 9 9 9 9 10 10 11 12 12
5 5 5 4 4 4 4 4 5 5 5 5 6 6 7 8 8 9 9 9 10 9 9 10 10 10 9 5 2 2 3 1 2 1 2 3 4 5 6 6 6 6 7 5 4 3 2 2 3 5 5 5 5 7 10 13 13 12 10 8 6 5 6 6 7 7 8 9 10 10 10 10 9 9 9 9 9 9 9 8 9 9 10 11 12 13
6 6 6 6 5 5 6 6 6 7 7 7 7 8 8 8 9 9 9 9 10 10 10 10 10 11 10 9 7 6 5 2 1 3 4 4 5 6 7 6 5 6 6 5 3 2 1 3 3 5 7 9 11 14 16 15 13 10 7 5 5 5 5 6 7 8 9 10 11 11 10 9 8 8 8 8 8 8 8 8 8 8 9 10 11 12
6 7 7 7 7 7 8 8 8 8 9 9 9 9 9 9 9 9 9 9 9 9 10 10 11 11 12 12 13 13 12 10 8 8 7 6 5 5 6 6 5 5 6 6 5 4 4 4 5 7 11 14 16 18 17 15 12 9 7 6 6 6 7 8 9 10 11 11 11 10 9 8 7 7 7 7 7 7 7 7 7 7 8 9 11 12
6 7 7 8 8 8 9 9 10 10 10 10 10 9 9 9 9 9 9 9 9 9 9 10 10 11 12 13 14 15 16 14 11 10 9 7 6 5 6 6 6 6 6 5 5 5 5 6 7 9 12 15 18 18 17 15 12 10 9 8 8 9 9 10 10 11 11 11 10 9 7 7 6 6 6 6 6 6 6 6 7 7 8 9 10 11
7 8 8 8 9 9 9 10 10 10 10 10 9 9 9 9 9 10 10 10 9 9 9 9 10 11 12 13 14 15 16 12 10 9 9 8 7 7 7 7 7 6 6 5 5 4 5 7 9 11 12 15 16 17 16 14 13 12 11 10 10 10 10 10 11 11 10 9 8 7 6 5 5 5 6 6 6 6 6 7 8 8 8 9 9 10
9 9 9 9 9 9 9 9 9 9 9 9 8 8 8 9 10 10 10 10 10 10 10 10 10 10 11 12 13 14 14 11 10 10 11 10 10 9 7 7 7 7 7 6 6 7 7 10 12 13 13 13 13 13 14 14 14 13 12 11 10 10 9 9 8 8 8 7 6 6 5 5 5 5 5 6 6 6 7 8 9 9 9 9 9 10
9 9 9 9 9 9 9 9 8 8 7 7 7 8 8 9 10 10 11 11 11 11 11 11 11 11 11 11 12 12 11 10 10 12 13 13 13 12 10 9 9 10 9 9 9 10 11 11 13 14 13 12 10 10 12 15 16 16 15 12 10 8 6 6 6 6 6 6 6 5 5 5 5 5 5 6 6 7 7 7 7 8 8 8 9 9
7 8 8 7 7 7 7 7 7 6 6 6 7 8 9 9 10 10 11 11 11 11 12 12 12 12 12 12 12 12 11 11 11 12 14 15 15 15 14 13 13 14 13 13 12 12 12 12 11 11 11 11 12 12 14 16 17 17 16 13 10 7 6 6 5 5 6 6 5 5 4 4 5 5 5 6 6 7 7 7 7 7 7 8 8 8
6 7 7 6 6 6 6 6 5 5 6 6 7 8 9 10 10 11 11 11 12 12 13 13 13 14 14 14 14 13 13 12 12 12 13 14 15 16 17 16 16 16 17 16 15 14 13 13 12 11 10 11 13 13 14 14 15 17 17 15 12 9 7 6 5 5 5 5 5 5 4 4 4 5 6 6 7 7 8 8 8 8 8 9 10 10
6 7 6 6 5 5 5 5 5 6 6 7 8 9 10 11 11 11 12 12 13 13 14 14 15 15 15 15 15 14 14 13 13 12 13 13 14 15 16 17 17 17 17 16 16 15 14 14 14 14 13 12 12 13 13 13 14 15 16 16 15 12 10 7 5 4 4 5 6 6 6 6 6 6 7 7 8 8 9 10 10 10 10 11 12 13
8 8 7 6 5 5 5 6 6 7 8 9 9 10 11 11 12 12 13 14 14 14 15 15 15 15 15 15 14 14 14 13 13 13 13 13 13 14 14 15 16 16 15 15 15 15 14 14 14 14 14 14 13 13 13 13 13 13 13 13 15 16 14 9 6 5 5 6 7 8 8 8 8 8 8 8 8 8 9 10 10 11 11 11 12 13
9 9 8 7 6 6 6 7 8 9 10 10 11 11 12 12 13 14 15 15 15 14 13 12 12 12 12 12 12 12 12 12 13 13 14 14 14 14 14 14 14 14 14 14 14 15 15 14 14 14 13 13 13 13 13 14 13 13 13 14 16 17 15 10 7 7 9 9 9 9 9 10 10 10 9 9 9 9 9 9 10 11 12 12 13 14
11 10 9 8 8 7 8 9 10 11 12 12 12 13 13 14 14 15 15 15 14 12 10 9 9 9 11 11 12 12 12 12 12 13 14 14 14 14 14 13 12 12 13 13 14 14 14 14 14 14 14 13 13 13 14 14 14 13 13 14 14 14 12 12 11 11 12 12 11 10 10 10 11 10 10 10 10 10 10 10 10 11 12 12 13 14
12 11 10 10 9 9 9 10 11 12 13 13 14 14 14 14 14 14 14 13 12 10 9 8 8 10 11 13 13 13 13 12 12 12 11 11 10 10 10 10 10 10 11 13 13 13 13 13 13 13 13 12 13 14 14 15 15 15 15 15 14 14 14 15 16 16 16 14 12 11 11 11 11 11 11 12 11 11 11 11 12 12 12 12 13 14
13 12 12 12 11 11 11 11 11 12 13 13 14 14 13 12 12 12 11 11 10 10 9 8 9 10 11 11 12 13 13 13 12 10 8 7 7 7 8 9 9 10 11 12 13 13 13 13 13 12 12 12 13 14 14 15 15 16 16 16 16 16 17 19 19 19 18 17 15 13 11 11 12 13 13 13 13 13 13 13 13 14 13 13 13 13
14 14 14 13 13 12 12 11 11 11 12 12 12 12 11 10 9 9 10 10 10 10 9 9 10 11 11 11 12 12 12 13 13 11 8 6 5 6 7 8 8 9 10 11 12 13 13 13 13 13 12 12 13 14 15 15 15 16 18 18 18 18 19 20 20 19 18 18 16 14 12 11 12 14 15 15 15 15 15 15 15 15 15 15 14 14
16 16 15 15 14 14 13 12 12 12 12 12 12 11 10 9 8 8 9 9 10 10 10 11 12 13 13 13 13 12 12 13 13 13 11 8 5 5 6 7 8 9 10 11 12 13 13 14 14 13 13 13 14 14 15 15 15 16 17 18 18 19 20 21 20 19 17 17 16 14 13 12 13 14 15 16 17 18 18 18 17 17 16 16 16 16
17 17 16 16 15 15 14 13 13 13 13 13 13 12 10 9 9 9 10 10 10 11 11 12 12 13 14 14 13 13 12 12 13 12 11 10 7 6 6 7 8 9 10 11 13 14 14 15 15 15 15 15 15 15 16 15 16 16 17 18 19 19 21 22 20 18 17 16 15 14 14 14 15 15 15 17 18 19 20 19 19 18 17 17 17 17
18 18 18 17 16 16 15 14 14 14 14 14 14 13 12 10 10 10 11 11 11 12 12 12 13 13 13 13 13 13 12 12 12 12 11 10 8 7 7 7 7 9 10 11 13 14 15 16 16 17 17 17 18 18 18 17 17 17 18 18 19 19 20 21 20 18 17 17 16 15 14 14 14 14 15 17 19 20 21 21 20 19 18 17 17 17
19 19 18 18 17 17 16 16 15 15 15 15 15 14 13 12 11 11 12 12 13 13 13 13 13 13 13 14 13 13 13 13 12 12 11 10 8 7 7 7 7 8 9 11 12 12 13 15 16 17 17 18 19 19 19 19 19 19 18 19 19 20 20 21 20 19 18 18 17 16 15 14 13 13 14 16 18 20 21 21 21 19 18 17 16 16
19 19 19 18 18 18 17 17 16 16 16 16 15 15 14 14 13 13 13 14 14 15 15 15 14 14 14 14 14 14 13 13 13 13 12 11 9 8 8 7 8 8 9 9 9 9 9 10 11 13 15 16 17 17 19 19 19 19 18 19 19 19 19 20 20 19 19 18 18 17 16 15 14 14 14 15 16 18 20 21 21 20 18 17 16 17
Wind_Direction
170 168 172 192 208 201 190 218 209 191 208 270 353 36 66 110 128 133 134 130 126 123 127 142 171 191 201 212 227 247 264 270 271 271 271 271 273 276 279 284 287 289 290 291 291 292 291 289 291 294 297 300 303 302 302 302 300 297 293 309 334 347 341 338 328 323 328 321 316 309 303 293 291 299 311 314 311 305 299 291 285 278 273 269 268 270
172 168 166 182 203 206 195 217 216 205 210 222 220 183 160 135 134 142 150 148 142 134 127 123 143 193 183 133 47 2 336 312 291 276 269 265 266 270 277 284 289 293 298 305 311 317 318 316 318 324 334 349 5 21 36 43 48 51 59 70 67 52 37 15 358 347 346 340 339 334 323 312 308 310 316 318 317 313 308 300 291 283 276 271 269 269
168 165 166 173 188 203 209 235 234 210 186 176 159 147 149 147 149 155 158 159 155 150 144 152 222 291 327 25 19 10 1 354 336 304 287 284 286 298 310 319 326 337 3 18 23 22 18 8 10 27 51 69 76 77 77 75 72 67 63 68 63 37 7 351 338 327 317 315 317 316 313 312 308 307 310 306 304 301 298 297 292 283 276 272 270 269
166 163 164 168 178 202 243 259 224 152 131 125 120 115 112 119 134 158 168 175 176 174 170 173 186 219 304 352 1 4 17 46 73 73 60 55 51 48 45 46 52 61 69 68 65 57 49 46 55 68 82 86 85 82 78 73 65 53 27 350 317 311 312 307 306 303 299 295 295 295 295 294 295 295 296 297 295 294 293 296 297 294 286 279 275 272
166 163 162 164 172 185 289 228 135 129 126 122 117 110 104 103 108 124 153 174 182 186 186 185 186 193 214 306 338 9 62 75 72 64 59 60 66 68 66 64 64 68 72 75 79 82 83 84 90 94 99 100 95 85 60 13 333 313 304 296 292 291 293 292 291 290 290 287 288 291 291 288 288 288 287 287 287 287 290 292 294 294 291 291 288 282
164 163 164 168 171 165 134 130 129 128 129 127 122 115 108 103 104 110 127 150 167 178 184 186 188 189 194 212 222 126 95 70 49 39 37 48 67 79 83 83 82 82 85 88 95 104 113 121 138 160 190 217 253 279 293 296 298 297 295 293 291 290 290 290 288 287 285 284 284 285 285 285 284 284 283 282 280 280 283 284 287 287 284 285 289 288
162 164 167 171 170 152 137 133 131 131 137 139 137 130 123 116 113 114 121 130 143 156 167 175 181 182 184 188 184 165 113 39 15 10 14 26 52 81 96 101 107 117 130 149 200 231 245 256 262 265 268 272 277 283 289 293 294 293 292 291 290 291 291 291 290 289 288 286 284 282 281 280 280 280 279 279 277 276 276 277 279 282 281 279 281 283
160 163 166 167 162 151 140 131 127 130 141 153 164 171 170 154 140 132 127 128 133 142 154 167 174 176 179 179 179 176 139 357 354 352 353 358 2 344 296 286 285 281 278 274 272 274 276 278 280 281 282 282 284 287 289 290 289 288 287 287 288 290 292 293 292 291 290 288 286 283 282 280 278 278 277 277 275 273 272 272 273 275 276 276 275 275
159 160 164 164 162 158 151 138 125 122 138 157 172 185 192 190 178 163 150 144 145 151 162 172 175 175 178 182 189 208 281 317 326 325 321 311 296 290 291 294 296 294 290 286 284 285 288 291 294 295 294 292 291 290 289 287 285 284 284 286 288 290 292 293 293 293 292 290 288 285 283 280 278 277 276 275 274 272 270 269 268 269 271 271 272 271
158 158 160 161 164 165 163 156 139 127 138 155 168 173 175 181 183 182 179 173 170 171 176 179 177 177 185 200 220 249 278 292 296 293 284 277 279 285 291 297 301 300 297 293 290 289 293 300 306 309 308 304 300 296 290 285 283 284 286 289 292 294 295 296 296 296 295 294 293 290 287 283 280 277 275 274 273 271 271 269 268 266 267 267 268 269
155 157 158 160 164 168 169 165 156 146 148 155 164 170 171 166 168 173 176 176 176 178 182 186 190 196 210 231 249 265 279 286 286 280 271 266 267 273 282 292 298 299 295 289 282 279 279 285 299 307 307 303 298 292 287 282 283 286 289 292 296 298 300 301 302 302 302 301 300 298 296 292 287 282 278 275 273 272 271 269 268 265 263 263 264 266
155 158 160 163 165 169 171 172 170 165 164 167 169 168 166 165 163 160 157 159 164 172 181 193 209 223 236 250 262 272 280 282 278 271 265 262 260 260 263 268 274 276 275 270 267 267 269 272 276 280 282 280 279 279 280 281 283 286 290 293 296 299 301 304 305 306 305 304 303 302 301 300 295 290 287 283 280 277 275 273 270 268 266 264 264 266
161 162 164 166 169 172 174 177 181 184 186 185 176 163 157 167 174 169 160 158 162 171 182 195 221 240 250 259 267 274 278 278 275 269 263 257 256 257 258 260 262 264 267 267 267 269 272 275 277 279 281 282 281 280 281 282 285 287 290 293 297 300 303 305 306 306 304 304 303 303 302 302 300 297 294 290 288 286 283 280 277 275 272 269 268 268
166 169 171 175 178 180 181 183 185 185 186 184 177 170 169 176 187 194 193 188 191 202 209 219 238 252 257 263 268 273 275 276 276 271 263 260 263 269 273 274 274 273 272 271 271 274 277 280 284 288 290 290 288 286 285 286 288 291 294 298 301 304 307 308 308 305 304 303 302 302 302 302 300 298 295 291 288 286 286 284 283 281 279 277 274 272
169 172 174 178 180 182 184 185 184 181 180 179 177 177 179 186 199 211 215 216 223 233 237 243 252 255 256 258 264 269 273 276 277 273 268 268 277 287 291 292 288 281 275 271 271 275 280 285 291 296 298 298 296 293 292 292 294 297 299 302 305 308 309 308 308 306 304 303 302 300 298 297 295 295 293 290 289 288 287 286 286 285 283 281 279 276
170 173 176 180 181 180 181 182 180 177 177 179 181 182 184 190 205 219 220 226 240 253 260 263 260 252 245 250 255 262 272 282 286 287 286 285 290 299 305 306 301 290 278 272 272 276 283 291 298 303 306 307 307 305 302 297 296 297 300 303 306 307 306 305 306 307 305 303 301 299 297 293 290 290 290 290 289 287 284 284 284 283 282 280 279 277
171 173 176 176 174 174 176 178 179 178 179 181 185 189 194 200 212 224 228 240 253 265 270 270 264 252 235 230 245 268 284 298 302 301 300 299 302 309 314 315 310 299 284 277 277 282 292 300 306 310 313 317 321 319 310 302 299 299 301 304 306 307 307 305 304 304 304 303 301 299 297 292 288 285 285 285 286 285 283 282 282 281 281 280 279 278
171 173 173 170 167 169 174 178 181 183 186 186 188 193 201 205 210 213 216 235 249 255 257 252 250 252 257 241 254 282 298 306 310 309 307 305 308 314 322 321 314 304 292 288 289 295 302 307 311 315 320 325 326 320 311 306 304 303 303 304 306 308 308 308 306 303 303 303 302 300 298 295 290 287 284 282 282 282 282 281 280 280 279 279 279 278
174 179 178 174 171 172 176 180 185 188 190 191 191 190 187 191 193 193 194 207 211 209 212 224 237 248 257 261 268 282 297 304 308 309 309 307 309 316 329 326 319 311 302 300 302 306 308 310 313 318 324 328 326 319 313 309 307 305 304 305 306 308 309 309 307 306 307 306 305 303 302 300 297 294 291 288 284 281 280 280 279 278 278 277 277 276
176 181 184 182 179 176 178 184 190 194 196 198 198 194 189 192 196 199 202 209 214 220 228 229 239 252 257 261 269 281 293 299 305 308 308 306 308 316 331 330 326 321 317 315 316 316 313 313 315 320 324 326 324 320 313 310 307 305 304 304 307 311 313 312 311 310 312 310 308 305 304 303 301 299 296 293 289 286 284 282 280 279 277 277 276 275
171 175 183 188 187 183 183 186 191 196 201 205 206 205 204 208 212 216 224 228 229 231 237 243 253 264 270 274 279 286 295 299 303 306 305 301 303 311 326 329 328 326 325 325 325 321 316 315 317 320 322 321 319 314 309 307 305 303 302 306 313 319 321 319 319 319 317 313 308 305 303 300 298 296 294 293 292 291 289 286 282 280 278 277 276 275
167 169 179 188 192 193 193 193 195 199 205 211 213 215 217 221 224 229 239 245 248 252 259 267 273 277 280 283 288 294 300 299 300 299 293 289 292 301 319 325 326 326 326 328 328 322 316 314 315 318 318 315 309 302 300 301 300 299 303 313 322 327 329 328 328 326 318 312 309 306 305 303 299 294 290 288 287 287 286 285 283 280 279 278 276 275
172 171 174 182 190 196 199 200 203 207 214 219 223 229 235 239 242 248 256 262 266 270 276 279 280 280 280 281 284 291 302 300 296 290 278 272 282 296 310 317 321 322 324 328 326 321 316 314 316 317 315 308 298 288 283 291 296 302 313 324 332 335 336 335 331 324 314 310 308 307 305 303 302 300 297 292 289 287 284 285 283 281 280 279 278 276
181 179 179 182 189 195 200 204 209 216 223 229 236 243 251 256 259 263 268 273 275 278 281 284 284 285 286 281 280 293 311 310 298 285 268 261 274 290 301 308 313 316 321 325 323 320 319 319 321 319 310 298 284 266 251 270 298 314 327 334 336 336 334 332 328 320 312 309 307 305 304 302 300 299 297 295 293 291 289 286 284 282 281 279 278 277
192 191 190 190 193 198 204 210 218 225 234 242 250 259 265 269 271 272 273 273 273 280 289 294 299 305 309 310 310 313 320 317 308 291 268 263 273 284 293 301 308 313 317 320 321 321 321 323 324 319 302 281 259 236 216 270 321 328 332 332 331 327 324 322 319 315 311 308 306 304 303 302 300 299 297 295 293 291 288 286 284 281 279 278 277 274
202 202 200 195 195 201 210 220 231 241 251 260 267 274 277 277 274 269 263 260 266 277 289 296 304 309 310 309 305 305 311 311 309 298 275 271 275 281 286 297 306 312 314 316 318 320 320 322 324 318 276 242 224 209 211 311 325 324 323 321 319 318 316 314 311 310 308 307 305 304 303 302 301 300 298 296 293 291 288 285 283 281 280 279 278 277
205 205 204 203 203 207 212 221 232 244 253 266 275 279 276 273 267 260 254 260 272 284 291 295 298 301 302 297 292 293 299 303 301 293 279 270 269 275 283 295 305 311 312 313 316 318 319 320 322 294 198 194 195 205 242 284 298 302 304 306 309 312 312 311 310 309 308 308 307 307 306 305 304 302 301 298 295 292 289 286 283 282 280 279 277 276
210 213 215 219 221 222 222 221 221 222 227 239 252 257 255 259 262 263 266 276 285 288 284 278 280 287 292 292 291 293 296 297 293 286 275 263 259 266 280 294 303 308 310 313 317 319 320 317 252 166 169 177 192 214 241 259 272 284 293 297 300 302 304 305 306 306 307 308 309 310 309 308 307 305 303 301 298 295 291 288 285 283 281 277 275 273
215 217 219 222 223 225 226 225 223 222 222 222 225 231 241 252 261 268 274 283 286 281 274 271 271 272 278 288 294 296 297 296 292 279 264 251 250 262 278 292 299 305 312 318 320 322 329 194 167 168 171 185 202 221 245 265 280 290 295 297 296 294 294 297 300 301 302 306 308 309 309 310 309 307 306 303 301 297 294 290 287 284 281 276 273 272
224 218 212 209 211 219 227 231 233 232 231 225 223 227 240 250 259 267 274 278 278 274 269 269 269 269 273 286 297 299 296 303 305 270 255 247 251 263 278 288 296 304 317 327 326 322 332 171 174 179 184 197 214 238 268 289 299 302 302 298 294 290 289 293 297 299 299 301 303 305 306 307 308 307 306 304 303 300 297 293 289 285 280 276 274 273
229 217 206 204 209 219 233 244 251 254 255 250 244 240 245 252 259 265 269 272 273 273 270 269 268 266 264 266 272 285 286 63 87 42 314 279 268 272 281 286 292 300 311 328 333 321 314 285 207 194 208 229 256 278 294 305 310 311 308 301 293 287 287 289 292 294 294 295 298 301 303 304 304 304 303 302 301 301 300 297 293 287 282 279 277 275
222 215 212 214 219 226 235 243 251 258 263 266 265 264 262 264 268 271 273 274 274 274 271 269 268 265 260 250 239 238 252 244 285 306 306 298 285 280 283 282 283 289 298 311 311 289 266 304 274 240 256 272 285 296 306 314 320 320 314 303 291 286 284 284 285 286 288 291 295 298 300 300 299 297 296 296 297 298 299 299 296 292 287 285 282 280
222 220 221 225 229 234 239 243 248 253 259 263 267 269 272 274 275 277 278 277 276 274 271 268 265 263 260 256 251 249 251 257 269 280 286 287 283 278 279 278 276 279 287 294 290 276 262 278 282 281 285 290 297 305 313 320 325 324 314 301 291 285 283 283 284 285 287 290 293 295 297 296 294 291 289 289 290 292 294 296 296 295 292 290 288 287
236 235 237 239 242 245 247 249 251 253 255 257 260 263 267 271 274 276 277 278 277 275 272 268 264 261 259 257 256 256 257 259 263 268 271 272 270 271 275 277 275 275 279 284 284 277 268 266 276 288 295 299 303 308 314 320 323 320 311 302 296 292 290 289 289 289 289 290 290 292 294 294 291 287 284 283 283 285 290 295 297 297 295 293 292 292
249 250 251 253 254 256 256 256 256 255 254 254 254 257 260 265 269 272 274 276 276 276 275 272 269 265 261 257 256 258 261 260 259 258 260 261 265 271 279 279 277 276 276 277 278 276 276 278 285 293 300 303 305 307 310 315 317 315 310 304 301 299 298 297 295 293 292 290 289 290 291 290 287 284 283 283 283 286 293 297 298 295 294 291 291 291
251 254 256 259 261 263 263 262 259 256 252 250 250 253 257 261 266 269 272 274 275 276 276 275 274 271 267 263 262 264 267 267 261 256 258 261 267 275 281 279 277 276 276 276 276 279 285 289 293 295 299 300 302 304 307 310 310 309 307 306 304 303 303 303 301 299 296 295 295 295 296 294 292 290 290 290 291 292 293 293 291 289 288 287 287 287
253 256 258 261 263 264 264 262 258 254 252 251 252 255 258 262 265 268 270 272 274 275 276 277 276 275 273 271 270 271 276 274 265 259 260 263 268 273 277 275 274 274 274 274 277 282 287 291 294 295 294 291 291 297 302 305 306 306 308 311 313 314 317 316 311 306 304 304 305 307 309 308 307 305 303 302 301 298 294 290 287 285 285 284 283 282
259 262 265 264 262 261 260 259 257 257 257 259 259 258 259 261 264 266 269 271 273 275 276 277 277 276 276 275 275 276 278 275 269 264 263 264 268 271 273 273 274 274 275 275 277 280 283 286 289 291 290 287 286 289 295 300 304 306 310 314 318 322 329 330 324 316 313 313 315 317 320 319 316 314 311 309 305 302 298 295 294 294 294 293 289 286
273 276 276 272 265 258 257 261 264 266 265 261 258 257 258 260 263 266 269 271 274 275 277 277 276 275 274 273 274 274 275 274 272 269 267 266 267 269 271 273 274 275 276 277 278 277 275 275 275 278 283 287 289 291 293 296 300 304 309 313 317 322 332 334 330 326 326 325 327 328 327 323 317 312 311 309 307 305 303 302 302 302 302 301 299 295
290 293 292 286 274 265 263 267 270 268 264 259 257 257 259 262 264 267 271 273 275 277 277 277 275 272 270 268 268 268 269 270 271 271 269 268 267 267 269 271 273 275 277 278 278 276 273 269 269 270 273 278 284 288 291 292 294 300 306 310 311 315 328 333 335 337 339 336 333 332 328 324 319 314 312 309 308 306 306 304 303 302 301 301 300 299
296 300 303 301 289 275 269 269 267 264 261 260 261 262 264 266 268 271 274 276 278 278 277 275 272 269 265 263 262 263 265 267 269 271 271 271 270 269 269 269 270 273 275 276 276 274 271 268 267 268 269 271 276 280 282 283 287 292 297 297 300 306 316 323 331 335 334 332 330 328 325 323 320 317 315 312 310 308 306 304 302 301 299 297 297 297
293 300 307 307 298 284 274 267 263 262 262 264 265 267 269 272 275 278 280 282 282 281 279 275 272 270 266 263 261 261 263 266 269 271 273 273 272 271 269 268 267 269 270 271 272 270 269 266 264 263 265 268 271 275 278 280 282 283 284 286 294 302 309 313 322 326 321 321 322 323 322 321 320 318 316 313 311 309 307 305 302 301 299 297 296 294
291 298 305 305 298 284 272 266 264 264 265 266 268 270 273 277 280 282 283 284 283 282 280 277 276 276 276 274 271 268 267 269 271 273 274 274 272 270 267 266 265 265 265 266 266 266 266 265 262 261 262 264 267 270 274 279 281 281 279 283 290 296 297 303 310 314 313 315 317 319 320 320 318 315 311 309 309 310 310 308 305 303 302 300 298 295
291 296 300 300 296 287 277 269 266 265 266 268 271 274 276 279 280 280 280 280 279 278 278 277 278 279 279 278 277 277 278 279 280 280 278 275 272 269 268 265 263 261 259 260 260 260 261 262 261 261 264 264 265 266 270 274 278 279 280 283 283 280 278 290 301 308 310 313 316 318 320 318 314 310 307 306 307 309 311 310 309 308 308 306 303 299
287 290 293 295 294 289 283 276 272 270 270 272 274 277 279 280 278 276 274 274 274 275 276 278 279 277 274 273 276 280 285 288 291 291 286 278 273 270 269 268 264 260 256 257 258 260 260 260 263 267 272 270 266 265 266 270 274 277 279 281 281 280 283 290 297 301 304 309 314 317 318 315 310 306 305 305 306 308 310 310 310 311 312 312 310 306
281 284 288 291 292 290 287 284 280 277 275 276 279 281 283 282 276 271 269 270 273 276 277 277 274 270 267 270 275 282 287 290 293 295 293 284 272 269 270 270 267 263 259 259 261 263 263 264 267 270 274 271 268 265 264 266 270 274 277 281 282 284 287 292 295 299 302 305 309 314 316 312 306 303 304 305 306 307 307 306 307 309 311 313 313 312
278 281 284 288 289 289 288 285 282 279 278 280 283 286 288 285 278 271 268 268 272 276 278 276 271 266 264 268 273 280 285 289 293 295 297 297 287 276 276 273 270 268 266 265 266 267 268 270 270 269 267 265 265 266 266 266 266 269 274 280 283 285 286 289 294 300 304 306 308 312 314 309 305 303 303 304 304 303 303 303 304 306 308 310 311 311
277 279 282 284 285 284 283 282 280 279 279 281 285 289 289 286 280 275 272 271 272 275 277 275 270 265 264 267 270 275 280 284 288 291 294 299 298 291 285 279 274 272 272 273 274 274 274 274 271 268 264 260 260 264 268 267 266 268 272 277 281 282 284 288 295 302 304 306 308 311 311 308 303 301 301 301 299 298 298 299 300 302 303 304 306 306
275 276 278 280 280 279 279 279 278 278 278 280 284 287 288 286 281 275 272 271 271 272 273 272 269 266 265 267 269 272 274 276 279 282 285 289 292 292 287 282 279 278 278 279 279 280 281 279 274 269 264 259 257 260 265 267 267 269 271 274 276 278 281 287 294 301 304 305 308 309 309 306 302 300 298 295 292 292 293 295 296 298 299 300 301 301
272 274 275 275 275 274 275 276 275 274 275 277 280 283 285 283 279 274 271 269 268 268 269 269 269 268 266 267 269 270 271 272 273 275 277 280 282 283 282 279 278 279 280 280 279 279 279 278 274 269 263 259 257 257 259 263 267 270 271 272 273 276 279 285 292 299 303 304 306 307 307 305 301 297 292 288 286 287 290 292 293 294 296 297 298 298
270 271 272 271 271 271 272 272 272 271 272 274 277 279 280 279 276 272 270 267 266 265 266 267 268 268 267 267 268 269 269 270 270 271 272 274 275 275 275 273 272 272 273 274 275 275 275 276 276 274 269 262 256 255 256 260 265 268 270 272 275 277 279 284 291 297 301 302 303 304 304 302 299 294 288 283 282 284 288 290 291 292 294 296 297 297
Height
826 826 826 827 827 827 827 827 828 828 827 827 827 828 828 828 828 828 828 828 829 829 829 829 830 830 830 830 830 831 831 831 831 830 830 830 830 830 830 829 829 829 829 829 829 829 829 829 829 829 829 829 829 829 829 829 829 829 829 829 829 829 829 829 830 830 830 830 830 830 829 829 829 829 829 829 829 829 829 829 829 830 830 830 830 830
826 826 826 826 826 827 827 827 827 827 827 827 827 827 827 827 827 828 828 828 828 828 829 829 829 829 829 830 830 830 830 830 830 830 830 830 829 829 829 829 829 829 829 829 829 829 829 829 829 829 828 828 828 828 828 828 828 828 828 828 829 829 829 829 829 829 829 829 829 829 829 829 828 828 828 829 829 829 829 829 829 829 829 829 829 829
825 825 826 826 826 826 826 826 826 826 826 827 827 827 827 827 827 827 827 828 828 828 828 829 829 829 829 829 830 830 830 830 830 830 829 829 829 829 829 829 828 828 828 828 828 828 828 828 828 828 828 828 828 828 828 828 828 828 828 828 828 828 828 828 828 828 828 828 828 828 828 828 828 828 828 828 828 829 829 829 829 828 828 828 828 828
824 824 825 825 826 826 826 826 826 826 826 826 827 827 827 827 827 827 827 827 828 828 828 828 829 829 829 829 830 830 830 830 829 829 829 829 829 829 828 828 828 828 828 828 828 828 829 828 828 828 828 828 828 828 828 828 828 828 828 828 828 828 828 828 828 828 828 828 828 828 828 828 828 828 828 828 828 828 828 828 828 828 828 828 828 828
823 823 824 824 825 825 825 825 825 826 826 826 826 826 827 827 827 827 827 827 828 828 828 828 829 829 829 829 829 829 829 829 829 829 829 829 829 829 828 828 828 828 828 828 828 829 829 828 828 828 828 828 828 828 828 828 828 827 827 827 827 827 827 827 827 827 827 827 827 827 827 827 827 827 827 827 827 827 827 827 827 827 827 827 827 827
823 823 823 824 824 824 825 825 825 825 825 826 826 826 826 826 827 827 827 827 828 828 828 828 828 829 829 829 829 829 829 829 829 829 829 829 829 829 829 829 829 829 829 829 828 828 828 828 828 828 828 828 828 828 828 827 827 827 827 827 827 827 827 827 827 827 826 826 826 826 826 826 826 826 826 826 826 826 826 827 827 827 827 827 827 827
822 822 823 823 823 824 824 824 825 825 825 825 826 826 826 826 826 827 827 827 827 828 828 828 828 829 829 829 829 829 829 829 829 829 829 829 829 829 829 829 829 829 828 828 828 828 828 828 828 828 828 827 827 827 827 827 827 827 826 826 826 826 826 826 826 826 826 826 826 826 826 826 826 826 826 826 826 826 826 826 826 826 826 826 826 826
821 821 822 822 823 823 824 824 824 824 825 825 825 825 826 826 826 827 827 827 827 828 828 828 828 828 828 828 828 828 828 828 828 828 828 828 828 828 828 828 828 828 828 828 828 828 828 827 827 827 827 827 827 827 827 826 826 826 826 826 826 825 825 825 825 825 825 825 825 825 825 825 825 825 825 825 825 825 825 825 825 825 826 826 826 826
820 821 821 822 822 823 823 824 824 824 824 825 825 825 825 826 826 826 827 827 827 828 828 828 828 828 828 828 828 828 828 828 828 828 828 828 828 828 828 828 828 828 827 827 827 827 827 827 827 827 826 826 826 826 826 826 826 825 825 825 825 824 824 824 824 824 824 824 823 823 823 823 823 823 823 823 824 824 824 824 824 824 825 825 825 825
819 820 821 821 821 822 822 823 823 824 824 824 824 825 825 825 826 826 826 827 827 827 828 828 828 828 828 828 828 828 828 828 828 828 828 827 827 827 827 827 827 827 827 827 827 827 826 826 826 826 826 826 826 826 825 825 825 824 824 824 824 824 823 823 823 823 822 822 822 822 822 822 822 822 822 822 822 822 822 823 823 823 823 824 824 824
819 819 820 821 821 821 822 822 823 823 824 824 824 824 825 825 825 826 826 826 827 827 827 827 827 827 827 827 827 827 827 827 827 827 827 827 827 827 827 826 826 826 826 826 826 826 826 826 826 826 825 825 825 825 824 824 824 823 823 823 823 823 822 822 822 822 821 821 821 821 821 821 821 821 821 821 821 821 821 821 822 822 822 822 822 823
818 819 819 820 821 821 821 822 822 823 823 823 824 824 824 825 825 826 826 826 826 827 827 827 827 827 827 827 827 827 827 827 827 826 826 826 826 826 826 826 826 826 826 826 826 825 825 825 825 825 824 824 824 824 823 823 823 822 822 822 822 822 821 821 821 821 821 821 821 821 821 820 820 820 820 820 820 820 821 821 821 821 821 821 821 821
818 818 819 819 820 821 821 821 822 822 823 823 823 824 824 825 825 825 826 826 826 826 826 826 826 826 826 826 826 826 826 826 826 826 826 826 826 826 826 825 825 825 825 825 825 824 824 824 824 824 823 823 823 823 822 822 822 822 821 821 821 821 821 820 820 820 820 820 820 820 820 820 820 820 820 820 820 820 820 820 820 820 820 820 820 821
817 818 818 819 820 820 821 821 821 822 822 822 823 823 824 824 825 825 825 825 826 826 826 826 826 825 825 825 825 825 825 825 825 825 825 825 825 825 825 825 824 824 824 824 823 823 823 823 823 823 822 822 822 821 821 821 821 821 821 821 820 820 820 820 819 819 819 819 819 819 819 819 819 819 819 819 819 819 819 819 819 819 819 819 819 820
816 817 818 818 819 820 820 820 821 821 821 822 822 823 823 824 824 825 825 825 825 825 825 825 825 825 825 825 825 825 825 825 825 825 825 825 825 824 824 824 823 823 823 823 822 822 822 822 822 822 821 821 821 821 820 820 820 820 820 820 820 819 819 819 819 818 818 818 818 818 818 818 818 818 818 818 818 818 818 818 818 818 818 819 819 819
816 816 817 818 818 819 819 820 820 821 821 821 822 823 823 823 824 824 824 824 824 824 824 824 824 824 824 824 824 824 824 824 824 824 824 824 824 824 823 823 822 822 822 822 821 821 821 821 821 821 820 820 820 820 820 820 819 819 819 819 819 818 818 818 818 818 817 817 817 817 817 817 817 817 818 818 818 818 818 818 818 818 818 818 818 818
816 816 817 817 818 818 819 819 820 820 821 821 822 822 823 823 823 823 824 824 824 824 824 824 824 824 824 824 824 823 823 823 823 823 823 823 823 823 822 822 821 821 821 821 821 821 821 820 820 820 820 819 819 819 819 819 819 819 818 818 818 818 817 817 817 817 817 817 817 817 817 817 817 817 817 817 817 817 817 817 817 817 817 817 817 817
815 816 816 817 817 818 818 819 819 820 820 821 821 822 822 822 823 823 823 823 823 823 823 823 823 823 823 823 823 823 823 823 822 822 822 822 822 822 822 821 821 820 820 820 820 820 820 820 819 819 819 818 818 818 818 818 818 818 818 818 817 817 817 816 816 816 816 816 816 816 816 816 816 816 816 816 816 816 816 816 816 816 816 816 816 816
815 816 816 816 817 817 818 818 819 819 820 820 821 821 822 822 822 822 822 822 822 822 823 823 823 823 823 823 823 822 822 822 822 821 821 821 821 821 821 821 820 820 820 819 819 819 819 819 819 818 818 818 818 817 817 817 817 817 817 817 817 816 816 816 815 815 815 816 816 816 815 815 815 815 815 815 815 815 815 815 815 815 816 816 816 816
815 815 816 816 816 817 817 818 818 819 819 820 820 821 821 821 822 822 822 822 822 822 822 822 822 822 822 822 822 822 822 822 821 821 821 820 820 820 820 820 820 819 819 819 819 818 818 818 818 817 817 817 817 817 817 817 817 817 816 816 816 816 815 815 815 815 815 815 815 815 815 815 815 815 815 815 814 814 814 815 815 815 815 815 815 815
814 815 815 816 816 816 817 817 818 818 819 819 820 820 821 821 821 821 821 821 821 821 821 821 821 821 821 821 821 821 821 821 821 821 821 820 819 819 820 819 819 819 818 818 818 818 817 817 817 817 816 816 816 816 816 816 816 816 816 816 815 815 815 814 814 814 814 814 814 814 814 814 814 814 814 814 814 814 814 814 814 814 814 814 814 814
814 814 815 815 816 816 816 817 817 818 818 819 819 820 820 820 821 821 821 821 821 821 821 821 821 821 821 821 821 821 821 821 821 820 820 820 819 819 819 819 818 818 818 817 817 817 817 816 816 816 816 816 815 815 815 815 815 815 815 815 815 814 814 814 813 814 814 814 814 813 813 813 813 813 813 813 813 813 813 813 813 813 813 813 813 813
814 814 814 815 815 816 816 816 817 817 818 818 819 819 819 820 820 820 820 820 820 820 820 820 820 820 820 820 820 820 820 820 820 820 820 819 819 818 818 818 818 817 817 817 816 816 816 816 816 815 815 815 814 814 814 815 815 815 815 814 814 814 813 813 813 813 813 813 813 813 813 813 812 812 812 812 812 812 812 812 812 812 812 812 812 812
814 814 814 815 815 815 816 816 816 817 817 818 818 819 819 819 819 819 819 819 819 819 819 819 819 819 819 819 819 819 819 819 819 819 819 819 818 818 818 818 817 817 816 816 816 816 815 815 815 815 814 814 814 814 814 814 814 814 814 814 813 813 813 813 813 813 813 812 812 812 812 812 812 812 811 811 811 811 811 811 811 811 811 811 811 811
814 814 814 815 815 815 816 816 816 817 817 817 818 818 818 818 818 819 819 819 819 819 819 819 819 818 818 818 818 819 819 819 819 819 819 818 818 817 817 817 817 816 816 816 815 815 815 814 814 814 813 813 813 813 813 813 813 813 813 813 813 813 813 812 812 812 812 812 812 811 811 811 811 811 811 811 811 811 811 811 811 811 811 811 811 811
814 814 814 815 815 815 816 816 816 816 817 817 817 817 817 818 818 818 818 818 818 818 818 818 818 818 818 818 818 818 818 818 818 818 818 818 818 817 817 817 816 816 816 815 815 814 814 813 813 813 812 812 812 813 813 813 813 813 813 813 813 812 812 812 812 811 811 811 811 811 811 811 810 810 810 810 810 809 809 809 809 810 810 810 810 809
814 814 814 814 815 815 816 816 816 816 816 816 817 817 817 817 817 817 817 817 818 818 818 818 818 818 818 818 818 818 818 818 818 818 818 818 817 817 816 816 816 816 815 815 814 814 813 813 812 812 812 812 812 812 812 812 813 812 812 812 812 812 811 811 811 811 811 811 810 810 810 810 809 809 809 809 808 808 808 808 808 808 808 808 808 808
813 813 814 814 814 815 815 816 816 816 816 816 816 816 816 816 816 816 817 817 817 817 817 817 817 817 817 817 817 817 817 817 817 817 817 817 817 816 816 816 816 815 815 814 813 813 812 812 812 812 812 812 812 812 812 812 812 811 811 811 811 811 811 810 810 810 810 810 809 809 809 809 808 808 808 808 807 807 807 807 807 807 807 807 807 807
812 813 813 814 814 814 815 815 815 815 816 816 816 816 816 816 816 816 816 816 816 816 816 816 817 817 817 817 817 816 816 816 816 816 816 816 816 816 816 816 815 815 815 814 813 812 812 812 811 811 811 811 811 811 811 811 811 811 811 810 810 810 809 809 809 809 809 809 809 808 808 808 807 807 807 807 806 806 806 806 806 806 806 806 806 806
812 812 813 813 813 813 814 814 814 815 815 815 816 816 816 815 815 815 815 815 816 816 816 816 816 816 816 817 816 816 815 815 815 816 816 816 816 815 815 815 815 815 814 814 813 812 812 811 811 811 811 811 811 811 811 811 811 810 810 809 809 809 808 808 808 808 808 808 808 807 807 807 806 806 806 806 806 806 806 805 805 805 805 805 805 805
811 812 812 812 812 813 813 813 813 814 814 814 814 815 815 814 814 815 815 815 815 815 815 815 815 816 816 816 816 816 815 815 815 815 815 815 815 815 815 815 815 814 814 814 814 813 812 811 811 811 811 811 811 811 811 810 810 809 808 808 808 808 808 807 807 807 807 807 806 806 806 806 806 805 805 805 805 805 805 805 805 804 804 804 803 803
811 811 811 811 812 812 812 812 812 813 813 813 813 813 813 813 814 814 814 814 814 814 814 814 814 814 815 815 816 815 815 815 815 815 815 815 815 814 814 814 814 814 814 814 814 814 813 811 811 811 811 811 810 810 810 809 809 808 807 807 807 807 807 806 806 806 806 806 805 805 805 805 804 804 804 804 804 804 804 804 804 803 803 803 802 802
810 811 811 811 811 811 811 811 812 812 812 812 812 812 812 812 812 812 812 812 813 813 813 813 813 813 814 814 814 814 813 814 814 814 814 814 814 814 814 814 814 813 813 813 813 813 813 812 811 810 810 810 809 809 808 808 808 807 807 806 806 806 806 806 805 805 805 805 804 804 804 804 803 803 803 803 803 803 803 803 803 803 802 802 802 801
810 810 810 810 810 810 811 811 811 811 811 811 811 811 811 811 811 811 811 811 811 812 812 812 812 812 812 812 812 812 812 813 813 814 813 813 813 813 813 813 813 813 813 813 812 812 812 811 811 810 809 808 808 808 807 807 807 806 806 806 806 805 805 805 804 804 804 804 803 803 803 803 802 802 802 802 802 802 802 802 802 802 802 801 801 801
809 809 809 809 809 809 809 810 810 810 810 810 810 810 810 810 810 811 811 811 811 811 811 811 811 811 811 811 811 811 811 812 812 813 813 813 812 812 812 812 812 812 812 812 812 812 811 810 810 810 809 808 807 806 806 806 806 806 806 805 805 805 804 804 803 803 803 803 802 802 802 802 801 801 801 801 801 801 801 801 801 801 801 801 801 801
808 808 808 808 808 808 808 808 808 809 809 809 809 809 809 809 809 810 810 810 810 810 810 810 810 810 810 810 810 810 810 811 812 812 812 812 812 812 812 812 811 811 811 811 811 811 811 810 809 809 809 808 806 806 805 805 805 805 805 804 804 804 803 803 803 802 802 801 801 801 801 801 801 801 801 800 800 800 800 800 800 800 800 800 800 800
807 807 807 807 807 807 807 807 807 807 808 808 808 808 808 808 809 809 809 809 809 809 809 809 809 809 809 809 809 809 809 810 811 811 811 811 811 811 811 811 811 811 811 811 811 810 810 809 809 808 808 807 806 806 805 804 804 804 803 803 803 803 803 802 802 801 801 801 801 801 800 800 800 800 800 800 799 799 799 799 799 799 799 799 799 799
806 806 806 806 806 806 806 806 807 807 807 807 807 807 807 808 808 808 808 808 808 808 808 808 808 808 808 808 808 808 808 809 809 809 810 810 810 810 810 810 810 810 810 810 810 810 810 809 808 807 806 806 806 805 805 804 803 802 802 802 802 802 802 801 801 801 801 800 800 800 800 799 799 799 799 799 798 798 798 798 798 798 798 797 797 797
806 806 806 806 806 806 806 806 806 806 806 806 806 806 807 807 807 807 807 807 807 807 807 807 807 807 807 807 807 807 807 808 808 808 808 808 809 809 809 809 808 808 809 809 809 809 809 808 808 807 806 805 805 804 804 804 803 802 801 801 801 801 801 801 800 800 800 800 799 799 799 799 798 798 798 798 798 797 797 797 797 797 796 796 796 796
805 805 805 805 805 805 805 805 805 806 806 806 806 806 806 806 806 806 806 806 806 806 806 806 806 806 806 806 806 806 806 806 807 807 807 807 807 807 807 807 807 807 807 807 807 807 807 807 806 806 806 805 804 804 803 803 802 802 801 801 799 799 799 800 799 799 799 799 799 798 798 798 798 797 797 797 797 796 796 796 796 796 795 795 795 794
804 804 804 804 804 805 805 805 805 805 805 805 805 805 805 805 805 805 805 805 805 805 805 805 805 805 805 805 805 805 805 806 806 806 806 806 806 806 806 806 806 806 806 806 806 806 806 806 805 805 805 804 804 803 803 802 802 802 801 801 799 798 798 798 798 798 798 798 798 797 797 797 797 796 796 796 796 796 795 795 795 794 794 794 794 793
804 804 804 804 804 804 804 804 804 804 804 804 804 804 804 804 804 804 804 804 804 804 804 804 804 803 803 803 804 804 804 804 804 805 805 805 805 805 805 805 805 805 805 805 805 805 804 804 804 804 804 803 803 803 802 801 801 801 801 800 799 798 797 797 797 797 797 797 797 797 796 796 796 795 795 795 795 794 794 794 794 794 793 793 793 792
803 803 803 803 803 803 803 803 803 803 803 803 803 803 803 803 803 803 803 802 802 802 802 802 802 802 802 802 802 802 803 803 803 803 803 803 803 803 803 803 803 804 804 804 804 803 803 803 803 803 802 803 802 802 801 800 800 800 799 799 799 799 797 796 796 796 796 796 796 796 796 795 795 794 794 793 793 793 793 793 793 793 792 792 791 791
802 802 802 802 802 802 802 802 802 802 802 802 802 802 802 802 802 802 801 801 801 801 801 801 801 801 801 801 801 801 801 802 802 802 802 802 802 802 802 802 802 802 803 803 802 802 802 802 802 801 801 802 801 801 800 799 799 798 798 798 798 798 797 796 795 795 795 795 795 795 795 794 794 793 792 792 792 792 792 792 791 791 791 791 791 790
801 801 801 801 801 801 801 801 801 801 801 801 801 801 801 801 801 801 801 800 800 801 801 801 801 801 800 800 800 800 800 800 800 801 801 801 801 801 801 801 801 801 801 801 801 801 801 801 801 801 801 801 801 800 799 799 798 797 797 797 797 796 796 795 794 794 794 793 793 793 794 793 793 792 791 791 791 790 791 790 790 790 790 790 790 789
799 800 800 800 800 800 800 800 800 800 800 800 800 800 800 800 800 800 800 800 800 800 800 800 800 800 799 799 799 799 799 799 799 799 799 799 800 800 800 800 800 800 800 800 800 800 800 800 800 800 800 800 799 799 798 797 797 796 795 795 795 795 794 793 793 793 793 792 792 792 792 792 792 791 790 790 789 789 789 789 789 789 788 788 788 788
798 798 799 799 799 799 799 799 799 799 799 799 799 799 799 799 799 799 799 799 799 799 799 799 799 799 798 798 798 798 798 798 798 798 798 798 798 798 799 799 799 799 799 799 799 799 799 799 799 799 799 799 798 797 796 796 796 795 794 794 794 794 793 792 791 791 792 792 791 791 791 791 791 790 789 789 788 787 787 787 787 787 787 787 786 786
797 797 797 797 798 798 798 798 798 798 798 798 798 798 798 798 798 798 798 798 798 798 798 798 798 797 797 797 797 797 797 797 797 797 797 797 797 797 798 798 798 798 798 798 798 798 797 797 797 797 797 797 796 796 795 794 794 794 793 793 793 792 791 790 790 790 791 791 791 791 790 790 790 789 788 788 787 786 786 786 786 786 786 786 785 785
796 796 796 796 796 796 796 796 796 797 796 796 797 797 797 797 797 797 797 797 797 797 797 797 797 796 796 796 796 797 797 797 796 796 796 797 797 797 797 797 797 797 797 797 797 796 796 796 796 795 795 795 795 794 793 792 792 792 792 792 791 791 790 789 789 789 789 789 789 789 789 789 789 789 788 787 786 785 784 784 784 784 784 784 784 783
795 795 795 795 795 795 795 795 795 795 795 796 796 796 796 796 796 796 796 796 796 796 796 796 796 796 796 796 796 796 796 796 796 796 796 796 796 796 796 796 796 797 796 796 796 796 795 795 794 793 793 793 793 793 792 791 791 791 791 790 790 790 789 788 788 788 788 788 788 788 788 788 788 788 787 787 786 784 783 782 782 782 783 783 782 782
793 793 794 794 794 794 794 794 794 794 794 794 794 794 795 795 795 795 795 795 795 795 795 795 795 795 795 795 795 795 795 795 795 795 795 796 796 796 796 796 796 796 796 796 796 795 795 794 793 792 791 791 791 791 791 790 790 789 789 788 788 788 788 787 787 786 787 787 787 787 786 786 786 786 786 786 785 784 782 781 780 780 781 781 781 781